THY6834 BIKF-EKVG

Flight info

Callsign THY6834
Flight time 1h 11m
Altitude 35000
Route OSKUM3A OSKUM DCT MAGNI
Aircraft B738/M-SDE2E3FGHIRWXY/LB1

Departure

Time 2026-05-07 16:42
Airport Keflavik International Airport (BIKF)

Arrival

Time 2026-05-07 17:54
Airport Vágar Airport (EKVG)
Time Latitude Longitude Altitude Speed Heading
2026-05-07 16:33 63.97288 -22.59543 165 ft 0 kts 177°
2026-05-07 16:39 63.97282 -22.59546 164 ft 1 kts 203°
2026-05-07 16:39 63.97280 -22.59638 160 ft 13 kts 273°
2026-05-07 16:39 63.97299 -22.59933 155 ft 23 kts 290°
2026-05-07 16:40 63.97370 -22.60314 149 ft 27 kts 291°
2026-05-07 16:40 63.97314 -22.60577 143 ft 23 kts 175°
2026-05-07 16:40 63.97133 -22.60552 139 ft 29 kts 180°
2026-05-07 16:40 63.96904 -22.60553 131 ft 35 kts 180°
2026-05-07 16:41 63.96655 -22.60554 124 ft 35 kts 180°
2026-05-07 16:41 63.96456 -22.60599 115 ft 16 kts 155°
2026-05-07 16:41 63.96484 -22.60513 118 ft 11 kts 341°
2026-05-07 16:41 63.96731 -22.60555 127 ft 87 kts 360°
2026-05-07 16:42 63.97621 -22.60550 193 ft 157 kts 359°
2026-05-07 16:42 63.98718 -22.60579 660 ft 160 kts 359°
2026-05-07 16:42 63.99802 -22.60619 1265 ft 156 kts 359°
2026-05-07 16:42 64.00919 -22.60619 1578 ft 156 kts
2026-05-07 16:43 64.01986 -22.60464 2093 ft 159 kts 12°
2026-05-07 16:43 64.03036 -22.59650 2607 ft 164 kts 24°
2026-05-07 16:43 64.04031 -22.58413 3102 ft 166 kts 33°
2026-05-07 16:43 64.04921 -22.56711 3573 ft 173 kts 46°
2026-05-07 16:44 64.05667 -22.54314 3938 ft 194 kts 62°
2026-05-07 16:44 64.06151 -22.51353 4454 ft 211 kts 77°
2026-05-07 16:44 64.06317 -22.47904 5013 ft 229 kts 88°
2026-05-07 16:44 64.06311 -22.44100 5561 ft 248 kts 95°
2026-05-07 16:45 64.05894 -22.40255 6372 ft 254 kts 112°
2026-05-07 16:45 64.05094 -22.36652 7222 ft 258 kts 118°
2026-05-07 16:45 64.04221 -22.33095 8067 ft 261 kts 120°
2026-05-07 16:45 64.03311 -22.29432 8914 ft 265 kts 120°
2026-05-07 16:46 64.02405 -22.25795 9729 ft 268 kts 120°
2026-05-07 16:46 64.01472 -22.22057 10361 ft 280 kts 120°
2026-05-07 16:46 64.00477 -22.18074 10771 ft 298 kts 120°
2026-05-07 16:46 63.99432 -22.13901 11535 ft 303 kts 120°
2026-05-07 16:47 63.98383 -22.09721 12301 ft 307 kts 120°
2026-05-07 16:47 63.97311 -22.05458 13068 ft 311 kts 120°
2026-05-07 16:47 63.96239 -22.01198 13811 ft 315 kts 120°
2026-05-07 16:47 63.95150 -21.96883 14541 ft 319 kts 120°
2026-05-07 16:48 63.94035 -21.92472 15265 ft 323 kts 120°
2026-05-07 16:48 63.92910 -21.88028 15972 ft 327 kts 120°
2026-05-07 16:48 63.91771 -21.83541 16664 ft 330 kts 120°
2026-05-07 16:48 63.90620 -21.79017 17341 ft 334 kts 120°
2026-05-07 16:49 63.89462 -21.74470 18001 ft 338 kts 120°
2026-05-07 16:49 63.88276 -21.69827 18655 ft 342 kts 120°
2026-05-07 16:49 63.87077 -21.65140 19296 ft 346 kts 120°
2026-05-07 16:49 63.85859 -21.60393 19926 ft 350 kts 120°
2026-05-07 16:50 63.84633 -21.55620 20540 ft 354 kts 120°
2026-05-07 16:50 63.83392 -21.50803 21140 ft 357 kts 120°
2026-05-07 16:50 63.82130 -21.45916 21727 ft 361 kts 120°
2026-05-07 16:50 63.80864 -21.41020 22297 ft 365 kts 120°
2026-05-07 16:51 63.79589 -21.36102 22850 ft 368 kts 120°
2026-05-07 16:51 63.78283 -21.31079 23398 ft 372 kts 121°
2026-05-07 16:51 63.77049 -21.25960 23921 ft 376 kts 114°
2026-05-07 16:51 63.76214 -21.20333 24439 ft 379 kts 103°
2026-05-07 16:52 63.75740 -21.14496 24943 ft 383 kts 98°
2026-05-07 16:52 63.75357 -21.08550 25438 ft 386 kts 98°
2026-05-07 16:52 63.74980 -21.02526 25927 ft 390 kts 98°
2026-05-07 16:52 63.74598 -20.96447 26404 ft 393 kts 98°
2026-05-07 16:53 63.74210 -20.90314 26871 ft 396 kts 98°
2026-05-07 16:53 63.73817 -20.84138 27327 ft 400 kts 98°
2026-05-07 16:53 63.73416 -20.77873 27776 ft 403 kts 98°
2026-05-07 16:53 63.73011 -20.71599 28212 ft 406 kts 98°
2026-05-07 16:54 63.72600 -20.65287 28638 ft 410 kts 98°
2026-05-07 16:54 63.72187 -20.58982 29052 ft 413 kts 98°
2026-05-07 16:54 63.71762 -20.52538 29463 ft 416 kts 98°
2026-05-07 16:54 63.71334 -20.46083 29863 ft 419 kts 98°
2026-05-07 16:55 63.70879 -20.39559 30257 ft 422 kts 99°
2026-05-07 16:55 63.70385 -20.33024 30642 ft 425 kts 100°
2026-05-07 16:55 63.69875 -20.26489 31022 ft 428 kts 100°
2026-05-07 16:55 63.69344 -20.19836 31461 ft 429 kts 100°
2026-05-07 16:56 63.68811 -20.13252 31928 ft 430 kts 100°
2026-05-07 16:56 63.68268 -20.06637 32399 ft 429 kts 101°
2026-05-07 16:56 63.67176 -19.93462 33308 ft 429 kts 101°
2026-05-07 16:57 63.66622 -19.86827 33747 ft 429 kts 101°
2026-05-07 16:57 63.66071 -19.80268 34170 ft 428 kts 101°
2026-05-07 16:57 63.65520 -19.73729 34581 ft 428 kts 100°
2026-05-07 16:57 63.64960 -19.67128 34955 ft 429 kts 100°
2026-05-07 16:58 63.63820 -19.53768 35000 ft 444 kts 100°
2026-05-07 16:58 63.62643 -19.40117 34999 ft 442 kts 100°
2026-05-07 16:59 63.61459 -19.26520 35000 ft 442 kts 101°
2026-05-07 16:59 63.60271 -19.13014 34999 ft 442 kts 101°
2026-05-07 17:00 63.59065 -18.99434 34999 ft 442 kts 101°
2026-05-07 17:00 63.57856 -18.85946 35000 ft 442 kts 101°
2026-05-07 17:01 63.56631 -18.72412 34999 ft 442 kts 101°
2026-05-07 17:01 63.55400 -18.58952 35000 ft 442 kts 101°
2026-05-07 17:02 63.54150 -18.45403 34999 ft 442 kts 101°
2026-05-07 17:02 63.52900 -18.31978 35000 ft 442 kts 102°
2026-05-07 17:03 63.51636 -18.18526 35000 ft 442 kts 102°
2026-05-07 17:03 63.50362 -18.05102 35000 ft 442 kts 102°
2026-05-07 17:04 63.49070 -17.91609 34999 ft 442 kts 102°
2026-05-07 17:04 63.47777 -17.78224 35000 ft 442 kts 102°
2026-05-07 17:05 63.46472 -17.64844 35000 ft 442 kts 102°
2026-05-07 17:05 63.45151 -17.51423 34999 ft 442 kts 102°
2026-05-07 17:06 63.43830 -17.38113 35000 ft 442 kts 102°
2026-05-07 17:06 63.42491 -17.24757 35000 ft 442 kts 103°
2026-05-07 17:07 63.41135 -17.11333 35000 ft 442 kts 103°
2026-05-07 17:07 63.39779 -16.98041 35000 ft 442 kts 103°
2026-05-07 17:08 63.38400 -16.84637 35000 ft 442 kts 103°
2026-05-07 17:08 63.37016 -16.71305 35000 ft 442 kts 103°
2026-05-07 17:09 63.35613 -16.57908 35000 ft 442 kts 103°
2026-05-07 17:09 63.34204 -16.44568 34999 ft 442 kts 103°
2026-05-07 17:10 63.32778 -16.31194 35000 ft 442 kts 103°
2026-05-07 17:10 63.31356 -16.17958 35000 ft 442 kts 103°
2026-05-07 17:11 63.29914 -16.04654 35000 ft 442 kts 103°
2026-05-07 17:11 63.28455 -15.91318 35000 ft 442 kts 103°
2026-05-07 17:12 63.26986 -15.77998 35000 ft 442 kts 103°
2026-05-07 17:12 63.25520 -15.64810 35000 ft 442 kts 103°
2026-05-07 17:13 63.24034 -15.51569 34999 ft 442 kts 103°
2026-05-07 17:13 63.22534 -15.38301 35000 ft 442 kts 103°
2026-05-07 17:14 63.21021 -15.25036 34999 ft 442 kts 104°
2026-05-07 17:14 63.19507 -15.11877 35000 ft 442 kts 104°
2026-05-07 17:15 63.17971 -14.98630 35000 ft 442 kts 104°
2026-05-07 17:15 63.16430 -14.85453 35000 ft 442 kts 104°
2026-05-07 17:16 63.14881 -14.72318 34999 ft 442 kts 104°
2026-05-07 17:16 63.13320 -14.59194 35000 ft 442 kts 104°
2026-05-07 17:17 63.11751 -14.46102 35000 ft 442 kts 104°
2026-05-07 17:17 63.10178 -14.33063 35000 ft 442 kts 105°
2026-05-07 17:18 63.08585 -14.19949 35000 ft 442 kts 105°
2026-05-07 17:18 63.06985 -14.06881 35000 ft 442 kts 105°
2026-05-07 17:19 63.05376 -13.93852 35000 ft 442 kts 105°
2026-05-07 17:19 63.03760 -13.80885 34999 ft 442 kts 105°
2026-05-07 17:20 63.02117 -13.67804 34999 ft 442 kts 105°
2026-05-07 17:20 63.00474 -13.54834 35000 ft 442 kts 105°
2026-05-07 17:21 62.98807 -13.41783 35000 ft 442 kts 105°
2026-05-07 17:21 62.97138 -13.28830 34999 ft 442 kts 106°
2026-05-07 17:22 62.95454 -13.15866 35000 ft 442 kts 106°
2026-05-07 17:22 62.93751 -13.02861 35000 ft 442 kts 106°
2026-05-07 17:23 62.92040 -12.89897 35000 ft 442 kts 106°
2026-05-07 17:23 62.90321 -12.76978 35000 ft 442 kts 106°
2026-05-07 17:24 62.88589 -12.64070 35000 ft 442 kts 106°
2026-05-07 17:24 62.86846 -12.51183 35000 ft 442 kts 106°
2026-05-07 17:25 62.85100 -12.38373 35000 ft 442 kts 106°
2026-05-07 17:25 62.83329 -12.25484 34891 ft 445 kts 107°
2026-05-07 17:26 62.82428 -12.18966 34472 ft 445 kts 107°
2026-05-07 17:26 62.81538 -12.12547 34071 ft 441 kts 107°
2026-05-07 17:26 62.80650 -12.06174 33672 ft 439 kts 107°
2026-05-07 17:26 62.79769 -11.99874 33279 ft 439 kts 107°
2026-05-07 17:27 62.78872 -11.93476 32881 ft 440 kts 107°
2026-05-07 17:27 62.77966 -11.87050 32481 ft 441 kts 107°
2026-05-07 17:27 62.77058 -11.80631 32081 ft 442 kts 107°
2026-05-07 17:27 62.76147 -11.74213 31680 ft 441 kts 107°
2026-05-07 17:28 62.75231 -11.67784 31278 ft 442 kts 107°
2026-05-07 17:28 62.74324 -11.61445 30883 ft 442 kts 107°
2026-05-07 17:28 62.73406 -11.55052 30483 ft 442 kts 107°
2026-05-07 17:28 62.72475 -11.48594 30080 ft 442 kts 107°
2026-05-07 17:29 62.71558 -11.42257 29684 ft 443 kts 107°
2026-05-07 17:29 62.70625 -11.35832 29283 ft 443 kts 107°
2026-05-07 17:29 62.69703 -11.29507 28888 ft 443 kts 108°
2026-05-07 17:29 62.68765 -11.23098 28487 ft 443 kts 108°
2026-05-07 17:30 62.67827 -11.16709 28088 ft 444 kts 108°
2026-05-07 17:30 62.66887 -11.10333 27689 ft 444 kts 108°
2026-05-07 17:30 62.65939 -11.03927 27288 ft 444 kts 108°
2026-05-07 17:30 62.64991 -10.97542 26889 ft 444 kts 108°
2026-05-07 17:31 62.64038 -10.91151 26489 ft 445 kts 108°
2026-05-07 17:31 62.63091 -10.84821 26093 ft 445 kts 108°
2026-05-07 17:31 62.62128 -10.78408 25690 ft 443 kts 108°
2026-05-07 17:31 62.61179 -10.72114 25291 ft 440 kts 108°
2026-05-07 17:32 62.60227 -10.65818 24889 ft 437 kts 108°
2026-05-07 17:32 62.59288 -10.59632 24491 ft 434 kts 108°
2026-05-07 17:32 62.58340 -10.53411 24088 ft 431 kts 108°
2026-05-07 17:32 62.57406 -10.47301 23689 ft 428 kts 108°
2026-05-07 17:33 62.56467 -10.41180 23287 ft 425 kts 108°
2026-05-07 17:33 62.55535 -10.35126 22886 ft 422 kts 108°
2026-05-07 17:33 62.54616 -10.29175 22488 ft 419 kts 109°
2026-05-07 17:33 62.53698 -10.23251 22090 ft 416 kts 109°
2026-05-07 17:34 62.52771 -10.17292 21680 ft 413 kts 109°
2026-05-07 17:34 62.51859 -10.11447 21228 ft 410 kts 109°
2026-05-07 17:34 62.50952 -10.05652 20779 ft 407 kts 109°
2026-05-07 17:34 62.50050 -9.99908 20330 ft 403 kts 109°
2026-05-07 17:35 62.49155 -9.94227 19882 ft 400 kts 109°
2026-05-07 17:35 62.48251 -9.88509 19428 ft 397 kts 109°
2026-05-07 17:35 62.47361 -9.82896 18978 ft 394 kts 109°
2026-05-07 17:35 62.46475 -9.77324 18528 ft 391 kts 109°
2026-05-07 17:36 62.45589 -9.71769 18075 ft 388 kts 109°
2026-05-07 17:36 62.44722 -9.66352 17630 ft 385 kts 109°
2026-05-07 17:36 62.43837 -9.60841 17174 ft 382 kts 109°
2026-05-07 17:36 62.42976 -9.55493 16728 ft 380 kts 109°
2026-05-07 17:37 62.42109 -9.50121 16276 ft 377 kts 109°
2026-05-07 17:37 62.41249 -9.44816 15825 ft 374 kts 109°
2026-05-07 17:37 62.40401 -9.39592 15379 ft 371 kts 109°
2026-05-07 17:37 62.39590 -9.34610 14949 ft 368 kts 110°
2026-05-07 17:38 62.38699 -9.29160 14476 ft 366 kts 110°
2026-05-07 17:38 62.37866 -9.24074 14030 ft 363 kts 110°
2026-05-07 17:38 62.37029 -9.18978 13579 ft 359 kts 110°
2026-05-07 17:38 62.36207 -9.13987 13129 ft 353 kts 110°
2026-05-07 17:39 62.35384 -9.09004 12673 ft 347 kts 110°
2026-05-07 17:39 62.34587 -9.04190 12227 ft 343 kts 110°
2026-05-07 17:39 62.33787 -8.99374 11774 ft 338 kts 110°
2026-05-07 17:39 62.33006 -8.94681 11327 ft 335 kts 110°
2026-05-07 17:40 62.32229 -8.90025 11022 ft 326 kts 110°
2026-05-07 17:40 62.31472 -8.85502 10995 ft 310 kts 110°
2026-05-07 17:40 62.30761 -8.81259 10994 ft 296 kts 110°
2026-05-07 17:40 62.30077 -8.77191 10994 ft 284 kts 110°
2026-05-07 17:41 62.29411 -8.73241 10981 ft 274 kts 110°
2026-05-07 17:41 62.28769 -8.69432 10718 ft 271 kts 110°
2026-05-07 17:41 62.28131 -8.65661 10465 ft 265 kts 110°
2026-05-07 17:41 62.27512 -8.62012 10214 ft 259 kts 110°
2026-05-07 17:42 62.26899 -8.58403 9960 ft 254 kts 110°
2026-05-07 17:42 62.26300 -8.54879 9709 ft 250 kts 110°
2026-05-07 17:42 62.25701 -8.51365 9455 ft 247 kts 110°
2026-05-07 17:42 62.25119 -8.47961 9208 ft 245 kts 110°
2026-05-07 17:43 62.24526 -8.44489 8955 ft 245 kts 110°
2026-05-07 17:43 62.23942 -8.41085 8706 ft 244 kts 110°
2026-05-07 17:43 62.23359 -8.37689 8456 ft 243 kts 110°
2026-05-07 17:43 62.22771 -8.34269 8203 ft 242 kts 110°
2026-05-07 17:44 62.22190 -8.30899 7953 ft 241 kts 110°
2026-05-07 17:44 62.21614 -8.27562 7704 ft 240 kts 110°
2026-05-07 17:44 62.21032 -8.24200 7453 ft 239 kts 110°
2026-05-07 17:44 62.20451 -8.20845 7200 ft 238 kts 110°
2026-05-07 17:45 62.19876 -8.17533 6950 ft 237 kts 110°
2026-05-07 17:45 62.19304 -8.14240 6700 ft 236 kts 110°
2026-05-07 17:45 62.18736 -8.10980 6452 ft 235 kts 110°
2026-05-07 17:45 62.18161 -8.07685 6200 ft 234 kts 110°
2026-05-07 17:46 62.17597 -8.04460 5952 ft 233 kts 110°
2026-05-07 17:46 62.17030 -8.01218 5701 ft 232 kts 110°
2026-05-07 17:46 62.16501 -7.97973 5452 ft 231 kts 108°
2026-05-07 17:46 62.15996 -7.94696 5201 ft 230 kts 108°
2026-05-07 17:47 62.15501 -7.91457 4951 ft 229 kts 108°
2026-05-07 17:47 62.15005 -7.88222 4700 ft 228 kts 108°
2026-05-07 17:47 62.14511 -7.85002 4448 ft 226 kts 108°
2026-05-07 17:47 62.14022 -7.81822 4198 ft 225 kts 108°
2026-05-07 17:48 62.13540 -7.78690 3950 ft 224 kts 108°
2026-05-07 17:48 62.13049 -7.75514 3698 ft 223 kts 108°
2026-05-07 17:48 62.12570 -7.72415 3539 ft 217 kts 108°
2026-05-07 17:48 62.12107 -7.69424 3509 ft 203 kts 108°
2026-05-07 17:49 62.11682 -7.66689 3507 ft 182 kts 108°
2026-05-07 17:49 62.11324 -7.64251 3485 ft 162 kts 105°
2026-05-07 17:49 62.11062 -7.62073 3457 ft 144 kts 103°
2026-05-07 17:49 62.10818 -7.59982 3177 ft 142 kts 103°
2026-05-07 17:50 62.10583 -7.57976 2911 ft 138 kts 104°
2026-05-07 17:50 62.10332 -7.56004 2665 ft 137 kts 105°
2026-05-07 17:50 62.10085 -7.54047 2419 ft 137 kts 104°
2026-05-07 17:50 62.09840 -7.52069 2170 ft 137 kts 104°
2026-05-07 17:51 62.09600 -7.50105 1921 ft 136 kts 104°
2026-05-07 17:51 62.09372 -7.48174 1673 ft 136 kts 102°
2026-05-07 17:51 62.09198 -7.46179 1423 ft 135 kts 99°
2026-05-07 17:51 62.09036 -7.44218 1174 ft 135 kts 99°
2026-05-07 17:52 62.08875 -7.42267 994 ft 132 kts 99°
2026-05-07 17:52 62.08713 -7.40319 998 ft 137 kts 99°
2026-05-07 17:52 62.08523 -7.38358 805 ft 133 kts 103°
2026-05-07 17:52 62.08284 -7.36436 664 ft 133 kts 105°
2026-05-07 17:53 62.08006 -7.34527 514 ft 133 kts 109°
2026-05-07 17:53 62.07655 -7.32720 365 ft 133 kts 117°
2026-05-07 17:53 62.07215 -7.30981 217 ft 133 kts 118°
2026-05-07 17:53 62.06750 -7.29268 194 ft 132 kts 118°
2026-05-07 17:54 62.06354 -7.27665 298 ft 102 kts 118°
2026-05-07 17:54 62.06165 -7.26939 275 ft 22 kts 134°
2026-05-07 17:54 62.06138 -7.26723 257 ft 19 kts
2026-05-07 17:54 62.06168 -7.26767 260 ft 0 kts 233°